Regional Weather Roundup
Issued by NWS

Home | Current Version | Previous Version | Graphics & Text | Print | Product List | Glossary Off
Versions: 1 2 3 4 5 6 7 8 9 10 11 12 13 14 15 16 17 18 19 20 21 22 23 24 25 26 27 28 29 30 31 32 33 34 35 36 37 38 39 40 41 42 43 44 45 46 47 48 49 50

000
ASUS43 KTOP 261559
RWRKS

WEATHER ROUNDUP FOR KANSAS
NATIONAL WEATHER SERVICE GOODLAND KS
1100 AM CDT THU MAY 26 2016

NOTE:  "FAIR" INDICATES FEW OR NO CLOUDS BELOW 12,000 FEET WITH NO
SIGNIFICANT WEATHER AND/OR OBSTRUCTIONS TO VISIBILITY.

KSZ001>006-013>018-027>032-041>047-261700-
NORTHWEST KANSAS

CITY           SKY/WX    TMP DP  RH WIND       PRES   REMARKS
GOODLAND       CLOUDY    67  50  54 E14       29.88F
HAYS           CLOUDY    61  57  88 E12       29.80F
HILL CITY      CLOUDY    72  58  61 E15       29.82F
RUSSELL        PTSUNNY   73  68  84 E14       29.77F
$$

KSZ061>065-074>080-084>089-261700-
SOUTHWEST KANSAS

CITY           SKY/WX    TMP DP  RH WIND       PRES   REMARKS
DODGE CITY     CLOUDY    71  55  56 E7        29.78F
ELKHART          N/A     69  49  48 W8          N/A
GARDEN CITY    SUNNY     70  60  70 NE12      29.79F
GREAT BEND     PTSUNNY   77  66  69 SE10      29.77F
LIBERAL        SUNNY     72  48  43 SE5       29.81S
$$

KSZ066>073-081>083-090>101-261700-
SOUTHEAST KANSAS

CITY           SKY/WX    TMP DP  RH WIND       PRES   REMARKS
CHANUTE        CLOUDY    80  73  79 S16G22    29.87S
COFFEYVILLE    CLOUDY    81  73  76 S13G21    29.88S
HUTCHINSON     MOSUNNY   82  71  69 S15       29.79S
MEDICINE LODGE   N/A     85  70  60 S15G22    29.76F
NEWTON         CLOUDY    79  70  73 S12       29.84S
PARSONS        CLOUDY    81  74  79 S10       29.88F
WICHITA INTL   CLOUDY    82  73  74 S14       29.79S HAZE
WICHITA JABRA  CLOUDY    80  73  79 S18G25    29.79F
WICHITA MCCONL PTSUNNY   81  73  78 S18G24    29.80S
WINFIELD       PTSUNNY   81  74  79 S16       29.83F HAZE
$$

KSZ007>012-019>026-033>040-048>060-102>105-261700-
NORTHEAST KANSAS

CITY           SKY/WX    TMP DP  RH WIND       PRES   REMARKS
CONCORDIA      PTSUNNY   74  68  81 E9        29.80F
EMPORIA        CLOUDY    81  73  76 SE15      29.82S
LAWRENCE       CLOUDY    73  68  84 SE9       29.86F
MANHATTAN      CLOUDY    76  70  82 E6        29.80F
OLATHE IND     PTSUNNY   78  71  79 SE13      29.88F
OLATHE EXE     CLOUDY    77  69  76 SE10      29.89S
SALINA         CLOUDY    84  74  71 SE13      29.77F
TOPEKA BILLARD CLOUDY    73  69  87 E10       29.85F
TOPEKA FORBES  CLOUDY    75  70  84 SE12      29.84F
$$




USA.gov is the U.S. government's official web portal to all federal, state and local government web resources and services.